• In Deutschland
  • Länderverzeichnis
  • Für 7 Tage
  • Wassertemperatur
  • Satellitenkarten
  • Wetterkarte
  • Widgets
  • user-avatar
    Anmelden

    Stündliche Wetter Masari Sharif

    Heute, 22 September, Freitag

    Zeit Temperatur Niederschläge Wind Luftdruck Luftfeuchtigkeit
    00:00 +19°C° 0 mm 2 m/S 654 mmHg 22%
    01:00 +18°C° 0 mm 2 m/S 654 mmHg 23%
    02:00 +17°C° 0 mm 2 m/S 654 mmHg 24%
    03:00 +17°C° 0 mm 2 m/S 654 mmHg 25%
    04:00 +16°C° 0 mm 2 m/S 654 mmHg 25%
    05:00 +17°C° 0 mm 2 m/S 654 mmHg 23%
    06:00 +19°C° 0 mm 2 m/S 655 mmHg 22%
    07:00 +20°C° 0 mm 2 m/S 655 mmHg 20%
    08:00 +21°C° 0 mm 2 m/S 656 mmHg 19%
    09:00 +23°C° 0 mm 2 m/S 656 mmHg 17%
    10:00 +25°C° 0 mm 2 m/S 656 mmHg 16%
    11:00 +25°C° 0 mm 3 m/S 656 mmHg 16%
    12:00 +26°C° 0 mm 3 m/S 656 mmHg 15%
    13:00 +27°C° 0 mm 3 m/S 656 mmHg 15%
    14:00 +27°C° 0 mm 3 m/S 656 mmHg 15%
    15:00 +26°C° 0 mm 3 m/S 655 mmHg 15%
    16:00 +26°C° 0 mm 3 m/S 655 mmHg 16%
    17:00 +24°C° 0 mm 2 m/S 655 mmHg 18%
    18:00 +23°C° 0 mm 2 m/S 655 mmHg 20%
    19:00 +21°C° 0 mm 1 m/S 655 mmHg 22%
    20:00 +21°C° 0 mm 1 m/S 655 mmHg 23%
    21:00 +20°C° 0 mm 1 m/S 655 mmHg 24%
    22:00 +20°C° 0 mm 1 m/S 655 mmHg 25%
    23:00 +19°C° 0 mm 1 m/S 654 mmHg 26%

    Morgen, 23 September, Samstag

    Zeit Temperatur Niederschläge Wind Luftdruck Luftfeuchtigkeit
    00:00 +19°C° 0 mm 1 m/S 654 mmHg 26%
    01:00 +18°C° 0 mm 1 m/S 654 mmHg 27%
    02:00 +18°C° 0 mm 1 m/S 654 mmHg 28%
    03:00 +16°C° 0 mm 1 m/S 654 mmHg 29%
    04:00 +16°C° 0 mm 1 m/S 654 mmHg 29%
    05:00 +18°C° 0 mm 1 m/S 655 mmHg 27%
    06:00 +20°C° 0 mm 1 m/S 656 mmHg 24%
    07:00 +21°C° 0 mm 1 m/S 657 mmHg 22%
    08:00 +22°C° 0 mm 1 m/S 657 mmHg 20%
    09:00 +24°C° 0 mm 1 m/S 657 mmHg 18%
    10:00 +25°C° 0 mm 2 m/S 657 mmHg 16%
    11:00 +26°C° 0 mm 2 m/S 657 mmHg 15%
    12:00 +26°C° 0 mm 2 m/S 657 mmHg 14%
    13:00 +27°C° 0 mm 3 m/S 657 mmHg 13%
    14:00 +27°C° 0 mm 3 m/S 657 mmHg 13%
    15:00 +27°C° 0 mm 3 m/S 657 mmHg 14%
    16:00 +27°C° 0 mm 3 m/S 657 mmHg 14%
    17:00 +25°C° 0 mm 2 m/S 657 mmHg 16%
    18:00 +23°C° 0 mm 2 m/S 656 mmHg 18%
    19:00 +21°C° 0 mm 1 m/S 656 mmHg 20%
    20:00 +21°C° 0 mm 1 m/S 656 mmHg 20%
    21:00 +20°C° 0 mm 1 m/S 656 mmHg 21%
    22:00 +20°C° 0 mm 1 m/S 656 mmHg 21%
    23:00 +19°C° 0 mm 1 m/S 656 mmHg 22%

    übermorgen, 24 September, Sonntag

    Zeit Temperatur Niederschläge Wind Luftdruck Luftfeuchtigkeit
    00:00 +18°C° 0 mm 2 m/S 656 mmHg 22%
    01:00 +17°C° 0 mm 2 m/S 655 mmHg 23%
    02:00 +17°C° 0 mm 2 m/S 655 mmHg 24%
    03:00 +16°C° 0 mm 2 m/S 655 mmHg 24%
    04:00 +16°C° 0 mm 1 m/S 655 mmHg 25%
    05:00 +18°C° 0 mm 1 m/S 656 mmHg 23%
    06:00 +18°C° 0 mm 2 m/S 657 mmHg 21%
    07:00 +20°C° 0 mm 2 m/S 658 mmHg 19%
    08:00 +21°C° 0 mm 2 m/S 658 mmHg 17%
    09:00 +23°C° 0 mm 2 m/S 658 mmHg 15%
    10:00 +25°C° 0 mm 2 m/S 659 mmHg 13%
    11:00 +26°C° 0 mm 2 m/S 659 mmHg 12%
    12:00 +26°C° 0 mm 3 m/S 659 mmHg 11%
    13:00 +27°C° 0 mm 3 m/S 658 mmHg 11%
    14:00 +27°C° 0 mm 3 m/S 658 mmHg 11%
    15:00 +26°C° 0 mm 3 m/S 658 mmHg 11%
    16:00 +26°C° 0 mm 3 m/S 658 mmHg 10%
    17:00 +24°C° 0 mm 3 m/S 658 mmHg 12%
    18:00 +21°C° 0 mm 2 m/S 658 mmHg 14%
    19:00 +20°C° 0 mm 1 m/S 657 mmHg 15%
    20:00 +19°C° 0 mm 2 m/S 657 mmHg 15%
    21:00 +19°C° 0 mm 2 m/S 657 mmHg 16%
    22:00 +18°C° 0 mm 2 m/S 657 mmHg 16%
    23:00 +18°C° 0 mm 2 m/S 657 mmHg 16%

    25 September, Montag

    Zeit Temperatur Niederschläge Wind Luftdruck Luftfeuchtigkeit
    00:00 +17°C° 0 mm 2 m/S 657 mmHg 17%
    01:00 +17°C° 0 mm 3 m/S 657 mmHg 17%
    02:00 +17°C° 0 mm 3 m/S 657 mmHg 18%
    03:00 +16°C° 0 mm 3 m/S 657 mmHg 18%
    04:00 +16°C° 0 mm 3 m/S 657 mmHg 19%
    05:00 +16°C° 0 mm 3 m/S 658 mmHg 18%
    06:00 +17°C° 0 mm 3 m/S 658 mmHg 18%
    07:00 +18°C° 0 mm 3 m/S 659 mmHg 17%
    08:00 +19°C° 0 mm 3 m/S 659 mmHg 17%
    09:00 +20°C° 0 mm 3 m/S 659 mmHg 16%
    10:00 +22°C° 0 mm 3 m/S 660 mmHg 16%
    11:00 +22°C° 0 mm 3 m/S 659 mmHg 15%
    12:00 +23°C° 0 mm 4 m/S 659 mmHg 14%
    13:00 +23°C° 0 mm 4 m/S 659 mmHg 14%
    14:00 +23°C° 0 mm 4 m/S 659 mmHg 14%
    15:00 +23°C° 0 mm 4 m/S 659 mmHg 14%
    16:00 +22°C° 0 mm 4 m/S 658 mmHg 14%
    17:00 +21°C° 0 mm 3 m/S 658 mmHg 16%
    18:00 +19°C° 0 mm 2 m/S 658 mmHg 18%
    19:00 +17°C° 0 mm 2 m/S 658 mmHg 19%
    20:00 +18°C° 0 mm 1 m/S 658 mmHg 20%
    21:00 +16°C° 0 mm 1 m/S 658 mmHg 21%
    22:00 +15°C° 0 mm 1 m/S 657 mmHg 21%
    23:00 +15°C° 0 mm 1 m/S 657 mmHg 22%

    26 September, Dienstag

    Zeit Temperatur Niederschläge Wind Luftdruck Luftfeuchtigkeit
    00:00 +14°C° 0 mm 1 m/S 657 mmHg 23%
    01:00 +14°C° 0 mm 1 m/S 656 mmHg 24%
    02:00 +13°C° 0 mm 1 m/S 656 mmHg 25%
    03:00 +13°C° 0 mm 1 m/S 656 mmHg 26%
    04:00 +12°C° 0 mm 1 m/S 656 mmHg 26%
    05:00 +14°C° 0 mm 1 m/S 656 mmHg 24%
    06:00 +15°C° 0 mm 1 m/S 657 mmHg 22%
    07:00 +18°C° 0 mm 1 m/S 658 mmHg 19%
    08:00 +19°C° 0 mm 1 m/S 658 mmHg 18%
    09:00 +19°C° 0 mm 2 m/S 658 mmHg 16%
    10:00 +20°C° 0 mm 2 m/S 658 mmHg 14%
    11:00 +21°C° 0 mm 2 m/S 658 mmHg 14%
    12:00 +22°C° 0 mm 3 m/S 658 mmHg 13%
    13:00 +24°C° 0 mm 3 m/S 657 mmHg 12%
    14:00 +22°C° 0 mm 3 m/S 657 mmHg 12%
    15:00 +22°C° 0 mm 3 m/S 657 mmHg 12%
    16:00 +22°C° 0 mm 3 m/S 657 mmHg 12%
    17:00 +20°C° 0 mm 2 m/S 657 mmHg 14%
    18:00 +20°C° 0 mm 1 m/S 657 mmHg 15%
    19:00 +18°C° 0 mm 1 m/S 657 mmHg 17%
    20:00 +16°C° 0 mm 1 m/S 656 mmHg 18%
    21:00 +16°C° 0 mm 1 m/S 656 mmHg 18%
    22:00 +15°C° 0 mm 1 m/S 656 mmHg 19%
    23:00 +15°C° 0 mm 1 m/S 656 mmHg 19%

    27 September, Mittwoch

    Zeit Temperatur Niederschläge Wind Luftdruck Luftfeuchtigkeit
    00:00 +14°C° 0 mm 1 m/S 656 mmHg 19%
    01:00 +14°C° 0 mm 1 m/S 657 mmHg 20%
    02:00 +14°C° 0 mm 1 m/S 657 mmHg 20%
    03:00 +13°C° 0 mm 1 m/S 657 mmHg 20%
    04:00 +13°C° 0 mm 1 m/S 657 mmHg 21%
    05:00 +15°C° 0 mm 1 m/S 658 mmHg 19%
    06:00 +16°C° 0 mm 1 m/S 659 mmHg 17%
    07:00 +19°C° 0 mm 1 m/S 660 mmHg 15%
    08:00 +20°C° 0 mm 1 m/S 660 mmHg 14%
    09:00 +20°C° 0 mm 2 m/S 661 mmHg 13%
    10:00 +21°C° 0 mm 2 m/S 661 mmHg 11%
    11:00 +23°C° 0 mm 2 m/S 661 mmHg 11%
    12:00 +22°C° 0 mm 3 m/S 661 mmHg 11%
    13:00 +24°C° 0 mm 3 m/S 661 mmHg 10%
    14:00 +24°C° 0 mm 3 m/S 661 mmHg 10%
    15:00 +24°C° 0 mm 3 m/S 660 mmHg 10%
    16:00 +22°C° 0 mm 3 m/S 660 mmHg 10%
    17:00 +21°C° 0 mm 2 m/S 660 mmHg 12%
    18:00 +19°C° 0 mm 2 m/S 660 mmHg 13%
    19:00 +18°C° 0 mm 1 m/S 659 mmHg 15%
    20:00 +16°C° 0 mm 1 m/S 659 mmHg 16%
    21:00 +15°C° 0 mm 1 m/S 658 mmHg 18%
    22:00 +15°C° 0 mm 1 m/S 658 mmHg 19%
    23:00 +14°C° 0 mm 1 m/S 658 mmHg 20%
    Mehr zeigen